Weather History for Portage Glacier, AK

Change the Weather History Date:

Tuesday, August 6, 2013

  Actual Average Record
Temperature  
Mean Temperature 55 °F -  
Max Temperature 57 °F - - ()
Min Temperature 53 °F - - ()
Degree Days  
Heating Degree Days 10    
Growing Degree Days 5 (Base 50)    
Moisture  
Dew Point 51 °F    
Average Humidity 85    
Maximum Humidity 96    
Minimum Humidity 75    
Precipitation  
Precipitation 0.68 in - - ()
Sea Level Pressure  
Sea Level Pressure 30.01 in    
Wind  
Wind Speed 14 mph (ESE)    
Max Wind Speed 24 mph    
Max Gust Speed 51 mph    
Visibility 5 miles    
Events Rain    
T = Trace of Precipitation, MM = Missing Value Source: NWS Daily Summary

Daily Weather History Graph

Daily Weather History Graph

Search for Another Location

Airport:

Trip Planner

Search our weather history database for the weather conditions in past years. The results will help you decide how hot, cold, wet, or windy it might be!

Date:

Astronomy

Aug. 06, 2013 Rise Set
Actual Time 5:44 AM AKDT 10:16 PM AKDT
Civil Twilight 4:45 AM AKDT 11:14 PM AKDT
Nautical Twilight 2:50 AM AKDT 1:02 AM AKDT
Astronomical Twilight Sun does not rise Sun does not rise
Moon 6:05 AM AKDT (8/6) 9:25 PM AKDT (8/6)
Length of Visible Light 18h 29m
Length of Day
16h 31m
Waning Crescent, 0% of the Moon is Illuminated
Aug 6
Waning Crescent
Aug 6
New
Aug 14
First Quarter
Aug 20
Full
Aug 28
Last Quarter

Hourly Weather History & Observations

Time (AKDT) Temp. Dew Point Humidity Pressure Visibility Wind Dir Wind Speed Gust Speed Precip Events Conditions
12:02 AM 53.1 °F 51.1 °F 93% 30.03 in 10.0 mi SE 13.8 mph 23.0 mph N/A   Overcast
12:34 AM 53.1 °F 52.0 °F 96% 30.03 in 10.0 mi SSE 13.8 mph 20.7 mph 0.00 in   Overcast
12:53 AM 55.0 °F 51.1 °F 86% 30.04 in 10.0 mi ESE 9.2 mph 23.0 mph 0.00 in   Overcast
1:24 AM 55.0 °F 51.1 °F 86% 30.04 in 10.0 mi SE 9.2 mph 26.5 mph N/A   Overcast
1:53 AM 54.0 °F 50.0 °F 86% 30.04 in 10.0 mi SE 9.2 mph 17.3 mph N/A   Overcast
2:08 AM 54.0 °F 50.0 °F 86% 30.03 in 10.0 mi ESE 11.5 mph 19.6 mph N/A   Overcast
2:53 AM 54.0 °F 51.1 °F 90% 30.04 in 10.0 mi SE 11.5 mph 20.7 mph N/A   Overcast
3:19 AM 55.9 °F 51.1 °F 84% 30.02 in 10.0 mi ESE 10.4 mph 20.7 mph N/A   Overcast
3:53 AM 57.0 °F 51.1 °F 81% 30.02 in 10.0 mi SE 15.0 mph 27.6 mph N/A   Overcast
4:53 AM 57.0 °F 51.1 °F 81% 30.02 in 9.0 mi ESE 12.7 mph 27.6 mph 0.01 in   Overcast
5:53 AM 55.9 °F 52.0 °F 87% 30.01 in 10.0 mi East 17.3 mph 31.1 mph 0.00 in Rain Light Rain
6:53 AM 57.0 °F 51.1 °F 81% 30.01 in 10.0 mi East 24.2 mph 34.5 mph 0.01 in   Overcast
7:31 AM 57.0 °F 51.1 °F 81% 30.01 in 10.0 mi ESE 13.8 mph 50.6 mph 0.00 in Rain Light Rain
7:53 AM 57.0 °F 51.1 °F 81% 30.02 in 9.0 mi ESE 17.3 mph 33.4 mph 0.00 in Rain Light Rain
8:07 AM 57.0 °F 51.1 °F 81% 30.01 in 10.0 mi ESE 17.3 mph 35.7 mph 0.00 in Rain Light Rain
8:53 AM 55.9 °F 51.1 °F 84% 30.02 in 10.0 mi ESE 23.0 mph 41.4 mph 0.00 in Rain Light Rain
9:02 AM 57.0 °F 50.0 °F 77% 30.02 in 10.0 mi ESE 20.7 mph 41.4 mph 0.00 in Rain Light Rain
9:53 AM 57.9 °F 50.0 °F 75% 30.01 in 10.0 mi ESE 19.6 mph 41.4 mph 0.00 in Rain Light Rain
10:30 AM 57.9 °F 50.0 °F 75% 30.02 in 10.0 mi ESE 15.0 mph 38.0 mph 0.00 in Rain Light Rain
10:53 AM 55.9 °F 51.1 °F 84% 30.02 in 2.0 mi ESE 16.1 mph 32.2 mph 0.02 in Rain Light Rain
11:25 AM 55.9 °F 51.1 °F 84% 30.02 in 3.0 mi ESE 20.7 mph 38.0 mph 0.04 in Rain Light Rain
11:53 AM 57.0 °F 50.0 °F 77% 30.02 in 10.0 mi East 17.3 mph 40.3 mph 0.04 in   Overcast
12:02 PM 57.0 °F 50.0 °F 77% 30.02 in 5.0 mi East 12.7 mph 34.5 mph 0.00 in Rain Light Rain
12:17 PM 55.0 °F 51.1 °F 86% 30.03 in 1.8 mi ESE 20.7 mph 35.7 mph 0.03 in Rain Rain
12:44 PM 55.9 °F 51.1 °F 84% 30.02 in 2.5 mi ESE 19.6 mph 43.7 mph 0.08 in Rain Light Rain
12:53 PM 55.9 °F 51.1 °F 84% 30.03 in 5.0 mi East 17.3 mph 39.1 mph 0.08 in Rain Light Rain
1:13 PM 55.9 °F 51.1 °F 84% 30.02 in 2.0 mi ESE 15.0 mph 33.4 mph 0.02 in Rain Light Rain
1:42 PM 55.9 °F 52.0 °F 87% 30.01 in 1.2 mi North - - 0.07 in Rain Rain
1:53 PM 55.9 °F 52.0 °F 87% 30.02 in 1.5 mi ESE 13.8 mph 44.9 mph 0.10 in Rain Rain
2:19 PM 55.9 °F 52.0 °F 87% 30.02 in 2.0 mi ESE 16.1 mph 41.4 mph 0.06 in Rain Light Rain
2:37 PM 55.9 °F 52.0 °F 87% 30.01 in 2.5 mi East 17.3 mph 33.4 mph 0.07 in Rain Light Rain
2:53 PM 55.9 °F 51.1 °F 84% 30.01 in 1.8 mi East 12.7 mph 35.7 mph 0.09 in Rain Light Rain
3:06 PM 55.9 °F 51.1 °F 84% 30.01 in 1.5 mi ESE 18.4 mph 36.8 mph 0.02 in Rain Light Rain
3:36 PM 55.0 °F 51.1 °F 86% 30.01 in 2.5 mi North - - 0.08 in Rain Light Rain
3:53 PM 55.9 °F 51.1 °F 84% 30.01 in 2.0 mi East 18.4 mph 31.1 mph 0.10 in Rain Light Rain
4:00 PM 55.9 °F 51.1 °F 84% 30.01 in 2.5 mi ESE 20.7 mph 34.5 mph 0.01 in Rain Light Rain
4:09 PM 55.9 °F 51.1 °F 84% 30.01 in 3.0 mi East 18.4 mph 40.3 mph 0.02 in Rain Light Rain
4:53 PM 55.9 °F 51.1 °F 84% 30.01 in 3.0 mi ESE 16.1 mph 28.8 mph 0.04 in Rain Light Rain
5:08 PM 55.9 °F 51.1 °F 84% 30.00 in 3.0 mi SE 13.8 mph 40.3 mph 0.01 in Rain Light Rain
5:18 PM 55.0 °F 51.1 °F 86% 30.01 in 2.5 mi ESE 13.8 mph 38.0 mph 0.02 in Rain Light Rain
5:33 PM 55.9 °F 51.1 °F 84% 30.00 in 2.0 mi ESE 15.0 mph 28.8 mph 0.04 in Rain Light Rain
5:53 PM 55.9 °F 52.0 °F 87% 30.01 in 2.5 mi East 15.0 mph 31.1 mph 0.05 in Rain Light Rain
6:40 PM 57.0 °F 52.0 °F 83% 30.00 in 2.5 mi ESE 17.3 mph 33.4 mph 0.04 in Rain Light Rain
6:48 PM 57.2 °F 51.8 °F 82% 29.99 in 2.5 mi SE 12.7 mph 29.9 mph 0.04 in Rain Light Rain
6:53 PM 57.0 °F 52.0 °F 83% 30.00 in 3.0 mi East 12.7 mph 25.3 mph 0.05 in Rain Light Rain
7:09 PM 55.9 °F 52.0 °F 87% 29.99 in 2.5 mi ESE 11.5 mph 28.8 mph 0.00 in Rain Light Rain
7:14 PM 55.9 °F 52.0 °F 87% 29.99 in 3.0 mi ESE 17.3 mph 26.5 mph 0.01 in Rain Light Rain
7:21 PM 55.9 °F 52.0 °F 87% 29.99 in 2.5 mi ESE 18.4 mph 31.1 mph 0.01 in Rain Light Rain
7:34 PM 55.9 °F 52.0 °F 87% 29.99 in 3.0 mi ESE 17.3 mph 36.8 mph 0.02 in Rain Light Rain
7:50 PM 55.4 °F 51.8 °F 88% 30.00 in 2.5 mi East 12.7 mph 21.9 mph 0.03 in Rain Light Rain
7:53 PM 55.9 °F 52.0 °F 87% 30.00 in 2.5 mi East 13.8 mph 21.9 mph 0.03 in Rain Light Rain
8:00 PM 55.0 °F 52.0 °F 89% 29.99 in 3.0 mi ESE 11.5 mph 21.9 mph 0.00 in Rain Light Rain
8:20 PM 55.9 °F 52.0 °F 87% 29.99 in 2.5 mi ESE 13.8 mph 29.9 mph 0.02 in Rain Light Rain
8:32 PM 55.0 °F 52.0 °F 89% 29.99 in 3.0 mi East 11.5 mph 20.7 mph 0.02 in Rain Light Rain
8:53 PM 55.9 °F 52.0 °F 87% 29.99 in 3.0 mi ESE 11.5 mph 28.8 mph 0.03 in Rain Light Rain
9:08 PM 55.9 °F 52.0 °F 87% 29.98 in 4.0 mi East 17.3 mph 26.5 mph 0.01 in Rain Light Rain
9:53 PM 55.9 °F 51.1 °F 84% 29.99 in 4.0 mi East 13.8 mph 29.9 mph 0.01 in Rain Light Rain
10:27 PM 53.1 °F 52.0 °F 96% 29.99 in 5.0 mi SE 12.7 mph 23.0 mph 0.01 in Rain Light Rain
10:37 PM 53.1 °F 51.1 °F 93% 29.99 in 5.0 mi SE 10.4 mph 17.3 mph 0.01 in Rain Light Rain
10:45 PM 53.1 °F 52.0 °F 96% 29.99 in 5.0 mi ESE 9.2 mph 17.3 mph 0.02 in Rain Light Rain
10:53 PM 53.1 °F 51.1 °F 93% 29.99 in 5.0 mi SE 10.4 mph 19.6 mph 0.02 in Rain Light Rain
11:33 PM 54.0 °F 51.1 °F 90% 29.99 in 5.0 mi SE 10.4 mph 18.4 mph 0.00 in Rain Light Rain
11:53 PM 53.1 °F 51.1 °F 93% 29.99 in 4.0 mi ESE 10.4 mph - 0.00 in Rain Light Rain